TIANLIAN 1-04

Last updated on Thu Oct 30 2025 00:02:50 GMT+0000 (Coordinated Universal Time)

1 41869U 16072A 25302.54211330 .00000041 00000+0 00000+0 0 9998 2 41869 0.2698 81.8313 0046646 95.0354 233.2234 1.00271454 32986
UTC large
Height (km)
Speed (km/s)
/
Latitude / Longitude
Inclination (degrees)
Orbital Period (minutes)
Azimuth
Elevation
Range (km)
Doppler Factor

Next 0 passes for location: London (51.5072 / 0.1276)

Sorry there are no passes over London.